Weather in Redding

United States     40°35′06″N   122°23′33″W
temp.,
°C
wind,
m/s
gust,
m/s
humid.,
%
clouds,
%
prec.,
mm/h
press.,
hPa
HPBL,
m
7 may, fri
fri723:00+14wnw35636 0.0 1014116
02:00+11wnw34730 0.0 101692
05:00+9nw33670 0.0 101878
08:00+13nw23450 0.0 1018323
11:00+20nnw24200 0.0 10171582
14:00+26s04130 0.0 10152906
17:00+25nne551236 0.0 10132805
20:00+18n362219 0.0 1016113
8 may, sat
sat823:00+12nnw34385 0.0 101961
02:00+9nnw34520 0.0 102169
05:00+8nnw34520 0.0 102177
08:00+13n36315 0.0 1021355
11:00+21ne46168 0.0 10191421
14:00+26e461562 0.0 10162046
17:00+28ne351559 0.0 10123386
20:00+20nnw2430100 0.0 101369
9 may, sun
sun923:00+14nnw23455 0.0 101658
02:00+11nnw34555 0.0 101666
05:00+10nnw356013 0.0 101788
08:00+15nnw37437 0.0 1016452
11:00+21nne5726100 0.0 10141580
14:00+25nne57175 0.0 10112387
17:00+27ne57144 0.0 10093101
20:00+20n48230 0.0 1010192
10 may, mon
mon1023:00+14nw33360 0.0 101255
02:00+12nnw34450 0.0 101366
05:00+10nnw35485 0.0 101588
08:00+15n49360 0.0 1016684
11:00+21nne57220 0.0 10151737
14:00+26ne36130 0.0 10122771
17:00+28ne57120 0.0 10103007
20:00+20n33250 0.0 101236
11 may, tue
tue1123:00+16nw22305 0.0 101427
02:00+14nw33305 0.0 101445
05:00+13nnw22325 0.0 101438
08:00+19n23275 0.0 1015184
11:00+27nne56155 0.0 10131575
14:00+31ne34115 0.0 10112226
17:00+32ene23125 0.0 10092330
20:00+24wsw11255 0.0 100911